Wind_Speed
31 30 30 29 29 28 27 26 24 20 20 19 16 14 11 10 10 9 8 10 10 10 10 10 10 10 11 11 12 12 13 14 14 13 12 12 12 11 11 11 11 12 12 12
32 33 33 31 28 27 28 26 24 22 21 21 19 15 11 9 10 9 9 11 11 10 11 11 11 11 12 12 12 13 13 14 14 14 14 13 13 13 13 13 14 14 15 15
31 32 33 29 27 28 29 28 26 24 23 22 20 16 13 10 10 10 10 11 11 11 11 11 11 12 12 13 13 13 14 14 14 14 15 15 15 15 16 16 17 17 17 18
28 28 31 27 26 27 28 27 27 26 25 24 20 18 17 14 12 11 10 12 13 13 13 13 13 13 13 13 13 14 14 15 15 16 16 16 17 17 18 19 19 19 20 20
27 28 28 24 24 24 26 26 27 27 25 24 22 21 19 17 14 13 12 13 14 15 14 14 14 15 15 15 15 15 16 16 17 18 18 19 19 19 20 21 21 21 22 22
24 24 23 23 23 25 25 26 26 25 24 25 23 22 19 17 15 15 14 14 15 16 17 16 16 16 16 16 17 17 18 18 18 19 20 20 21 21 22 22 23 23 24 24
22 23 22 22 23 25 26 24 24 24 24 24 24 22 22 19 17 16 16 16 17 17 17 17 17 18 17 17 17 18 18 19 19 20 21 22 22 23 24 24 24 25 25 25
22 23 22 21 22 23 24 25 25 24 23 23 24 21 22 21 19 17 16 16 17 18 18 17 17 18 18 18 19 20 20 20 21 22 23 23 24 24 25 25 25 26 26 26
21 22 21 22 22 22 22 23 24 26 27 24 24 23 21 20 19 19 18 17 17 17 18 18 18 19 19 20 21 21 21 22 23 24 25 25 26 26 27 27 27 27 28 29
17 17 19 20 21 20 21 22 23 23 24 24 23 22 20 18 17 17 18 18 18 19 20 19 19 19 20 22 22 22 23 23 24 25 26 27 27 28 28 29 29 29 30 30
16 16 17 17 19 21 21 21 21 22 22 23 23 22 21 20 19 18 18 18 19 20 20 20 21 21 21 22 23 24 24 25 25 26 28 29 29 30 30 31 31 31 32 32
17 16 15 14 15 17 18 19 19 19 21 22 21 21 21 21 20 19 20 20 20 20 20 21 22 23 23 24 25 25 26 26 27 28 28 29 30 30 30 31 32 32 33 33
16 15 15 14 15 15 15 16 17 17 19 21 21 22 21 21 21 21 21 21 21 22 22 23 23 23 23 24 25 26 27 27 27 29 30 31 31 31 32 33 32 33 34 35
15 14 14 13 14 14 15 16 17 18 20 21 22 23 24 23 23 23 23 23 23 23 24 24 24 25 25 25 26 27 28 28 29 29 29 30 31 31 32 32 32 33 35 36
14 13 13 13 13 14 15 16 16 18 18 19 20 21 22 22 23 24 24 23 24 24 25 25 26 26 27 27 28 29 29 29 30 30 31 31 31 32 32 32 34 36 37 37
14 13 12 13 13 14 15 16 17 17 18 18 19 20 21 21 22 23 22 23 23 24 25 26 27 27 28 28 29 30 31 31 31 32 33 33 33 34 35 35 37 37 38 39
14 14 14 13 13 14 15 15 16 16 16 17 18 20 21 21 22 23 23 23 23 24 25 26 27 28 28 29 30 30 31 31 31 32 33 34 35 36 36 37 38 39 39 40
15 15 15 15 15 14 15 15 14 15 16 16 17 19 21 21 21 21 23 24 24 25 26 26 27 28 29 30 30 31 32 33 33 34 35 36 36 37 38 39 39 40 41 41
15 15 15 15 15 15 15 14 15 16 17 17 18 19 21 21 22 23 23 24 24 25 26 27 28 28 29 30 31 32 33 33 33 34 34 35 36 37 38 39 40 41 42 43
15 15 15 15 15 16 15 15 15 16 17 18 18 18 20 22 22 23 24 25 25 25 25 26 27 29 30 30 31 31 32 33 34 34 35 36 37 39 39 40 41 42 43 44
16 16 15 15 15 15 15 15 16 16 16 17 18 19 20 21 21 22 22 23 23 24 25 26 27 28 29 30 31 32 33 34 35 36 37 38 39 40 41 41 42 44 45 46
16 16 15 14 14 15 15 15 16 16 17 17 17 18 20 21 21 21 21 22 23 24 25 26 27 28 29 31 32 33 34 35 36 38 39 40 41 41 42 43 44 45 46 47
14 14 14 14 13 14 15 16 17 17 17 17 18 18 19 20 21 21 22 23 24 25 27 27 28 29 30 31 33 34 35 36 37 38 40 40 41 43 43 44 45 46 47 47
13 13 14 14 13 14 15 15 16 17 17 18 19 19 19 20 21 22 23 24 25 26 27 28 29 30 31 32 34 35 36 38 38 39 40 41 42 43 44 45 46 46 46 47
14 14 15 15 15 15 16 16 17 18 18 19 19 19 20 21 22 23 24 25 26 27 28 29 31 32 33 34 35 36 38 39 40 41 42 42 43 44 44 45 45 45 46 46
14 14 15 15 16 16 17 18 19 20 21 22 22 22 23 24 24 25 26 27 28 29 30 31 32 32 33 35 36 38 39 40 40 41 42 42 43 43 43 43 43 43 43 43
14 14 15 16 17 18 18 19 20 21 22 22 23 23 24 25 25 26 27 28 28 29 30 31 32 33 35 36 37 38 39 39 39 40 40 40 40 41 40 40 40 40 40 39
Wind_Direction
247 244 244 247 249 251 252 253 256 253 255 254 252 250 249 237 221 215 213 209 206 209 209 208 208 206 205 205 205 205 207 208 210 213 217 221 225 231 238 245 254 262 270 276
251 248 247 248 247 248 250 251 251 252 251 248 250 246 243 237 233 224 223 217 213 215 214 212 211 211 211 212 212 212 214 217 220 225 228 231 236 241 247 254 260 266 271 276
251 249 248 250 249 248 247 248 249 249 249 246 247 244 243 242 247 246 240 229 221 216 216 215 215 217 218 219 220 221 223 226 229 231 235 239 244 248 254 259 263 268 273 277
250 247 247 249 247 244 244 244 246 246 247 248 247 248 247 244 244 244 243 234 220 218 219 219 220 222 223 224 225 227 230 232 235 238 241 245 249 253 258 262 266 270 274 278
248 247 247 245 244 243 243 242 243 243 240 241 243 247 246 240 236 234 235 231 225 224 222 221 224 227 228 229 231 232 235 237 241 244 247 250 253 257 261 264 267 272 275 279
246 247 248 243 244 243 243 239 239 240 235 236 242 242 240 238 235 226 227 229 229 227 225 224 226 230 231 232 234 237 240 241 245 248 251 254 256 259 262 266 269 273 276 279
245 249 251 250 248 244 241 239 239 238 237 240 241 242 238 239 238 230 230 228 228 229 229 229 231 233 235 235 238 242 244 245 248 252 255 257 259 262 265 268 271 274 277 280
246 249 250 253 250 242 241 238 238 239 240 240 239 240 236 234 235 232 229 227 226 227 230 232 235 237 239 241 243 245 248 251 253 255 257 260 263 264 266 268 272 274 276 280
247 248 250 252 250 247 244 238 237 238 240 243 242 241 236 232 226 226 227 226 229 230 234 237 239 241 243 245 248 250 252 255 257 259 259 261 263 265 266 267 271 273 276 279
249 251 249 249 245 243 243 242 238 236 238 239 235 236 229 227 223 223 228 231 234 238 241 242 244 245 246 247 249 251 254 256 258 260 262 263 265 268 268 269 271 274 276 277
258 259 254 258 251 246 243 238 236 234 228 227 227 230 231 230 228 227 230 235 238 242 245 246 247 246 248 250 251 252 254 258 259 261 265 267 269 270 270 271 273 273 275 277
259 256 256 258 254 254 248 240 239 238 230 228 230 232 230 231 231 229 230 235 239 243 247 249 249 250 251 251 253 255 258 261 263 265 268 270 272 273 274 275 276 276 276 277
255 254 258 259 256 250 245 241 242 237 234 232 230 228 229 231 230 231 234 237 241 244 247 249 250 253 254 255 256 257 260 264 266 267 268 270 273 274 276 276 276 277 278 279
253 253 253 255 249 247 244 237 238 237 236 236 233 231 232 230 229 233 237 240 244 247 249 250 252 255 258 259 260 261 263 265 266 267 270 272 273 274 275 276 277 278 278 280
248 248 247 247 244 244 238 234 235 236 236 235 232 231 229 230 231 235 239 243 246 249 251 253 255 257 258 262 264 265 266 267 268 270 273 274 275 276 277 278 279 278 279 281
242 243 243 242 243 243 241 236 237 239 237 238 237 235 233 233 235 239 241 243 247 250 252 253 256 258 259 262 265 266 265 268 270 272 274 276 278 279 279 279 279 279 280 282
246 246 245 244 243 245 239 237 238 239 239 241 240 237 236 238 240 243 244 247 250 252 253 254 257 258 260 262 266 267 268 270 272 272 274 277 279 279 279 280 280 280 281 282
247 247 246 249 250 249 245 242 240 242 242 241 244 243 241 240 242 247 250 250 253 256 256 258 260 262 264 267 269 269 270 270 272 274 275 277 278 279 280 281 281 282 283 284
244 245 246 249 249 245 244 245 244 244 245 246 246 244 243 243 246 250 251 254 256 258 259 260 261 263 265 268 270 272 273 274 275 276 277 278 278 280 282 283 284 284 284 285
241 241 244 248 249 247 247 247 247 249 248 248 249 249 247 248 251 253 255 258 259 262 262 263 265 267 269 271 273 274 275 276 277 278 279 280 281 283 284 284 285 285 286 286
242 244 246 247 249 249 250 249 251 251 253 253 254 254 254 254 254 255 257 259 262 265 268 269 271 273 274 276 276 277 278 279 280 281 282 283 284 285 286 286 287 287 288 289
245 245 245 249 254 253 253 255 256 257 258 259 259 260 260 259 257 259 261 265 268 271 273 274 276 277 278 279 280 281 282 283 283 284 284 285 285 286 287 287 288 289 290 290
248 248 249 251 254 255 257 260 262 263 263 263 265 267 269 267 264 265 269 271 273 275 276 277 279 279 280 281 282 283 284 285 286 286 287 287 286 287 287 288 289 289 290 290
249 250 252 255 257 260 262 263 264 265 267 268 268 270 271 270 269 270 272 274 275 277 278 280 282 283 284 285 285 285 286 286 286 286 287 287 287 287 288 289 289 290 290 291
248 252 256 258 260 261 262 263 266 268 269 272 274 274 273 274 274 274 276 277 279 280 281 283 284 286 286 287 287 287 287 287 287 287 288 288 288 289 290 291 291 291 292 292
249 252 257 262 263 264 266 268 269 271 272 274 276 276 276 276 277 278 280 281 283 284 285 286 287 289 289 289 290 290 290 290 290 290 290 290 290 291 291 292 292 293 293 293
259 260 262 265 266 267 269 270 271 271 273 274 276 276 277 278 279 280 281 283 284 285 286 288 289 290 290 291 291 292 292 292 292 292 292 292 292 292 293 294 294 294 295 295
Height
5792 5794 5795 5797 5800 5801 5803 5804 5806 5808 5809 5812 5813 5815 5816 5817 5818 5819 5819 5821 5822 5824 5824 5826 5827 5829 5831 5832 5834 5836 5838 5840 5842 5844 5845 5846 5848 5849 5849 5850 5850 5850 5850 5849
5784 5786 5788 5791 5794 5796 5797 5799 5800 5802 5804 5807 5808 5810 5811 5812 5814 5815 5816 5818 5819 5821 5822 5823 5825 5827 5828 5830 5832 5834 5836 5838 5839 5841 5842 5843 5844 5845 5845 5846 5846 5846 5845 5845
5776 5778 5781 5785 5788 5789 5790 5792 5794 5796 5800 5801 5803 5805 5806 5808 5809 5811 5813 5814 5816 5818 5819 5821 5822 5824 5826 5827 5829 5831 5833 5834 5836 5837 5838 5839 5840 5841 5841 5841 5841 5841 5840 5840
5769 5772 5774 5781 5780 5781 5783 5785 5788 5790 5792 5795 5797 5800 5802 5803 5805 5807 5809 5810 5812 5814 5816 5818 5819 5821 5823 5824 5826 5827 5829 5830 5832 5833 5834 5835 5835 5836 5836 5836 5836 5835 5835 5834
5762 5764 5767 5772 5773 5775 5777 5779 5781 5782 5786 5789 5792 5794 5796 5798 5800 5802 5804 5806 5808 5810 5812 5814 5816 5818 5819 5821 5822 5823 5825 5826 5827 5828 5829 5830 5830 5830 5830 5830 5830 5829 5829 5828
5756 5758 5760 5765 5767 5768 5771 5773 5775 5776 5779 5783 5785 5788 5791 5793 5795 5796 5798 5801 5803 5805 5807 5809 5811 5813 5814 5816 5818 5819 5820 5821 5822 5823 5823 5824 5824 5824 5824 5824 5823 5823 5822 5821
5750 5751 5754 5757 5759 5762 5765 5768 5769 5771 5773 5776 5779 5782 5785 5788 5790 5791 5793 5795 5798 5800 5802 5804 5806 5808 5809 5811 5812 5814 5814 5815 5816 5817 5817 5817 5818 5818 5818 5817 5817 5816 5815 5814
5744 5746 5751 5750 5752 5754 5757 5760 5763 5765 5767 5768 5771 5774 5777 5781 5783 5785 5788 5790 5792 5795 5797 5799 5801 5802 5804 5805 5806 5807 5808 5809 5810 5810 5811 5811 5811 5810 5810 5810 5809 5808 5807 5806
5740 5743 5743 5744 5745 5748 5750 5753 5756 5758 5761 5762 5765 5767 5770 5773 5776 5779 5782 5785 5787 5789 5791 5793 5795 5796 5798 5799 5800 5801 5802 5802 5803 5803 5803 5803 5803 5803 5802 5802 5801 5800 5799 5797
5734 5736 5737 5738 5740 5742 5744 5746 5749 5751 5753 5756 5759 5761 5764 5767 5770 5773 5776 5779 5782 5784 5786 5787 5788 5790 5791 5792 5793 5794 5795 5795 5796 5796 5795 5795 5795 5795 5794 5793 5793 5792 5790 5789
5729 5731 5732 5733 5734 5736 5739 5741 5743 5744 5746 5749 5753 5756 5759 5762 5765 5768 5771 5773 5776 5778 5779 5780 5781 5783 5784 5785 5786 5786 5787 5788 5788 5788 5788 5787 5787 5786 5786 5785 5784 5782 5781 5779
5725 5726 5728 5729 5729 5731 5732 5734 5737 5738 5741 5744 5747 5750 5753 5756 5759 5762 5765 5767 5769 5771 5772 5773 5774 5776 5777 5777 5778 5778 5779 5779 5780 5780 5779 5779 5778 5777 5776 5776 5774 5773 5771 5770
5721 5722 5723 5724 5725 5726 5727 5729 5731 5733 5736 5739 5742 5744 5746 5750 5753 5756 5758 5760 5762 5764 5765 5766 5767 5768 5769 5769 5770 5771 5771 5772 5771 5771 5771 5770 5769 5768 5767 5766 5764 5763 5761 5760
5716 5718 5719 5720 5720 5721 5722 5724 5726 5728 5731 5733 5735 5738 5741 5744 5746 5749 5751 5754 5756 5757 5758 5759 5760 5761 5761 5762 5762 5762 5763 5763 5763 5762 5761 5761 5760 5759 5757 5755 5754 5752 5751 5749
5711 5713 5714 5715 5716 5716 5717 5719 5721 5723 5725 5727 5729 5731 5734 5737 5739 5742 5744 5746 5748 5750 5751 5752 5752 5753 5754 5754 5754 5754 5754 5754 5753 5753 5752 5751 5750 5749 5747 5745 5744 5742 5740 5738
5706 5708 5709 5710 5711 5712 5713 5714 5716 5718 5720 5722 5724 5726 5728 5730 5733 5735 5737 5739 5741 5741 5742 5744 5744 5745 5745 5746 5746 5745 5745 5745 5744 5743 5743 5741 5740 5739 5737 5735 5733 5731 5729 5726
5702 5703 5704 5705 5706 5708 5709 5710 5711 5713 5715 5717 5719 5721 5723 5725 5727 5728 5730 5732 5733 5734 5735 5736 5736 5736 5737 5737 5737 5736 5735 5735 5734 5733 5732 5731 5729 5728 5726 5724 5721 5719 5717 5714
5697 5698 5700 5701 5702 5703 5704 5705 5706 5709 5710 5712 5714 5715 5716 5718 5720 5721 5722 5724 5725 5726 5727 5727 5728 5728 5728 5728 5727 5726 5725 5725 5724 5723 5721 5720 5718 5716 5714 5711 5709 5706 5704 5701
5692 5693 5695 5696 5697 5698 5699 5701 5702 5704 5705 5707 5708 5709 5710 5712 5713 5714 5716 5717 5718 5718 5719 5719 5719 5719 5719 5718 5718 5717 5715 5714 5713 5712 5710 5708 5706 5704 5702 5699 5696 5694 5691 5688
5687 5689 5690 5691 5692 5693 5694 5695 5697 5698 5699 5701 5702 5703 5704 5705 5706 5707 5708 5709 5709 5710 5710 5710 5710 5709 5709 5709 5708 5706 5705 5704 5702 5700 5699 5697 5695 5692 5690 5687 5684 5681 5677 5674
5682 5684 5685 5686 5687 5688 5690 5691 5692 5693 5694 5695 5696 5697 5698 5698 5699 5699 5700 5701 5701 5701 5701 5701 5701 5700 5699 5698 5697 5696 5694 5693 5691 5689 5687 5685 5682 5679 5677 5674 5670 5667 5664 5660
5678 5679 5681 5682 5683 5684 5685 5686 5687 5688 5689 5690 5690 5691 5691 5691 5691 5692 5693 5693 5693 5693 5693 5693 5692 5691 5690 5688 5687 5685 5683 5681 5679 5677 5674 5672 5669 5666 5663 5660 5657 5653 5649 5645
5674 5675 5676 5677 5678 5679 5680 5681 5682 5682 5683 5684 5684 5684 5684 5684 5684 5685 5685 5685 5685 5685 5684 5683 5682 5681 5679 5678 5676 5674 5672 5669 5667 5664 5661 5658 5655 5652 5649 5646 5642 5638 5634 5630
5669 5670 5672 5673 5674 5675 5676 5676 5676 5677 5677 5678 5678 5678 5677 5677 5677 5677 5677 5677 5676 5676 5675 5674 5672 5671 5669 5667 5664 5662 5660 5657 5654 5651 5648 5645 5642 5638 5635 5631 5628 5624 5619 5615
5665 5666 5667 5668 5669 5670 5670 5671 5671 5671 5671 5671 5671 5671 5670 5670 5670 5669 5669 5668 5668 5666 5665 5663 5662 5660 5658 5656 5653 5650 5648 5645 5641 5638 5635 5631 5628 5624 5620 5617 5613 5609 5605 5600
5661 5662 5662 5663 5663 5664 5664 5665 5665 5665 5665 5665 5664 5664 5663 5662 5661 5661 5660 5659 5658 5656 5655 5653 5651 5649 5647 5644 5641 5638 5635 5631 5628 5625 5621 5617 5614 5610 5606 5602 5599 5595 5590 5586
5656 5656 5657 5658 5658 5658 5658 5659 5658 5658 5658 5657 5657 5656 5655 5654 5653 5652 5651 5650 5648 5647 5645 5643 5641 5638 5635 5632 5629 5626 5622 5619 5615 5611 5608 5604 5600 5596 5593 5589 5585 5581 5577 5573